{"data":{"norad_id":64910,"intl_designator":"2025-157G","name":"STARLINK-34642","alt_names":[],"object_type":"PAYLOAD","status":"ACTIVE","operator":null,"country":"US","launch_date":"2025-07-26","launch_site_code":"AFETR","launch_vehicle":null,"mission":null,"orbit_class":"UNKNOWN","rcs_meters":null,"size_class":null,"mass_kg":null,"dimensions":null,"purposes":["comms"],"wikipedia_slug":null,"has_3d_model":false,"image_url":null,"decayed_at":null,"tle_current":{"epoch":"2026-05-24T20:38:45.603456Z","epoch_age_seconds":80415,"freshness":"FRESH","line1":"1 64910U 25157G   26144.86025004  .00020931  00000+0  68433-3 0  9993","line2":"2 64910  53.1583 351.3120 0000457 348.6610  11.4381 15.31701210 47792","mean_motion":15.3170121,"eccentricity":4.57e-5,"inclination_deg":53.1583,"raan_deg":351.312,"arg_perigee_deg":348.661,"mean_anomaly_deg":11.4381,"bstar":0.00068433,"rev_number":4779,"period_min":94.013113693368,"perigee_km":470.42339476714,"apogee_km":471.04938179483,"semimajor_km":6848.873388281,"source":"CELESTRAK","updated_at":"2026-05-25T13:38:20.620476Z"}}}